EW8956 Weather Reports


Display with metric or nautical units.
time (UTC)temp
F
wind
direction
speed
MPH
gust
MPH
rain 1hr
in
rain 24hr
in
rain mn
in
humidity
%
barometer
mb
20260508050049 49 0 0.0 0.0 0.00 0.41 0.00 93 1014.8
20260508044548 50 0 0.0 1.0 0.00 0.41 0.00 93 1014.7
20260508043048 50 0 0.0 0.0 0.00 0.41 0.00 93 1014.6
20260508041547 51 0 0.0 0.0 0.00 0.41 0.00 93 1014.4
20260508040057 51 0 0.0 1.0 0.00 0.41 0.00 94 1014.4
20260508034548 52 0 0.0 0.0 0.00 0.45 0.41 93 1014.3
20260508033109 52 0 0.0 1.0 0.00 0.45 0.41 93 1014.5
20260508031558 52 0 0.0 0.0 0.00 0.45 0.41 94 1013.9
20260508030103 52 0 0.0 0.0 0.00 0.45 0.41 93 1014.0
20260508024613 53 0 0.0 1.0 0.00 0.46 0.41 93 1014.0
20260508023049 53 0 0.0 1.0 0.00 0.46 0.41 93 1013.7
20260508021552 53 0 0.0 0.0 0.00 0.46 0.41 92 1013.6
20260508020105 54 0 0.0 0.0 0.00 0.46 0.41 92 1013.4
20260508014606 54 0 0.0 1.0 0.00 0.47 0.41 92 1012.9
20260508013101 55 0 0.0 1.0 0.00 0.47 0.41 91 1012.7
20260508011554 55 0 0.0 1.0 0.00 0.47 0.41 91 1012.3
20260508010104 56 0 0.0 0.0 0.00 0.47 0.41 91 1012.0
20260508004549 56 0 0.0 1.0 0.00 0.47 0.41 91 1012.1
20260508003053 57 0 0.0 1.0 0.00 0.47 0.41 91 1012.1
20260508001555 57 0 0.0 0.0 0.00 0.47 0.41 90 1012.1
20260508000055 57 0 0.0 1.0 0.00 0.47 0.41 90 1012.1
20260507234549 57 0 0.0 2.0 0.00 0.47 0.41 89 1011.9
20260507233051 57 0 0.0 1.0 0.00 0.47 0.41 89 1011.5
20260507231552 57 0 0.0 3.0 0.00 0.47 0.41 89 1011.4
20260507230055 57 0 0.0 4.0 0.00 0.47 0.41 90 1011.1
20260507224552 57 0 0.0 3.0 0.00 0.47 0.41 90 1010.9
20260507223043 57 0 0.0 3.0 0.00 0.47 0.41 90 1010.8
20260507221550 57 0 1.0 5.0 0.00 0.47 0.41 89 1010.9
20260507220049 57 61 1.0 8.0 0.00 0.47 0.41 90 1010.5
20260507214550 57 71 0.0 2.0 0.00 0.47 0.41 92 1010.5
20260507213055 57 64 0.0 8.0 0.00 0.47 0.41 91 1010.6
20260507211553 57 133 0.0 7.0 0.00 0.47 0.41 91 1010.4
20260507210056 58 0 0.0 2.0 0.11 0.47 0.41 91 1010.4
20260507204554 57 9 0.0 2.0 0.17 0.47 0.41 91 1010.6
20260507203050 58 0 0.0 3.0 0.17 0.47 0.41 93 1010.1
20260507201553 57 30 0.0 2.0 0.17 0.47 0.41 91 1010.5
20260507200050 57 30 0.0 4.0 0.06 0.36 0.30 88 1010.6
20260507194550 58 344 0.0 3.0 0.00 0.30 0.24 87 1010.2
20260507193055 59 0 0.0 7.0 0.00 0.30 0.24 87 1010.1
20260507191551 59 344 0.0 7.0 0.00 0.30 0.24 88 1009.8
20260507190044 59 5 0.0 6.0 0.00 0.30 0.24 88 1010.0
20260507184549 59 0 1.0 7.0 0.00 0.30 0.24 89 1010.1
20260507183104 59 0 0.0 4.0 0.00 0.30 0.24 89 1010.4
20260507181555 60 0 0.0 11.0 0.00 0.30 0.24 89 1010.3
20260507180054 61 57 0.0 3.0 0.00 0.30 0.24 90 1009.8
20260507174545 61 0 0.0 2.0 0.00 0.30 0.24 89 1010.2
20260507173056 62 0 0.0 3.0 0.00 0.30 0.24 88 1010.4
20260507171553 63 0 0.0 2.0 0.00 0.30 0.24 89 1010.3
20260507170053 64 0 0.0 4.0 0.00 0.30 0.24 88 1010.3
20260507164550 64 0 0.0 8.0 0.00 0.30 0.24 87 1010.0
20260507163057 66 324 1.0 2.0 0.00 0.30 0.24 87 1009.5
20260507161557 68 147 0.0 1.0 0.00 0.30 0.24 92 1009.5
20260507160053 65 0 0.0 1.0 0.00 0.30 0.24 94 1009.9
20260507154551 64 0 0.0 1.0 0.01 0.30 0.24 94 1010.3
20260507153058 64 0 0.0 3.0 0.01 0.30 0.24 94 1010.8
20260507151548 64 0 0.0 1.0 0.02 0.30 0.24 94 1010.7
20260507150048 64 0 0.0 1.0 0.02 0.30 0.24 94 1011.1
20260507144550 64 0 0.0 2.0 0.02 0.29 0.23 94 1010.3
20260507143059 64 0 0.0 1.0 0.03 0.29 0.23 94 1010.4
20260507141550 64 0 0.0 3.0 0.04 0.28 0.22 94 1010.4
20260507140044 63 0 0.0 2.0 0.07 0.28 0.22 94 1010.6
20260507134549 63 0 0.0 2.0 0.11 0.27 0.21 94 1009.8
20260507133050 63 147 0.0 2.0 0.11 0.26 0.20 94 1009.8
20260507131550 63 0 0.0 2.0 0.10 0.24 0.18 94 1010.4
20260507124555 63 0 0.0 1.0 0.03 0.16 0.10 94 1011.6
20260507123042 63 0 0.0 2.0 0.02 0.15 0.09 94 1011.5
20260507121553 63 0 0.0 1.0 0.02 0.14 0.08 94 1011.1
20260507120051 63 0 0.0 1.0 0.01 0.13 0.07 94 1011.2
20260507114546 63 147 0.0 1.0 0.02 0.13 0.07 94 1011.1
20260507113046 63 0 0.0 1.0 0.02 0.13 0.07 94 1010.8
20260507111542 63 0 0.0 0.0 0.01 0.12 0.06 94 1010.5
20260507110049 63 147 0.0 2.0 0.01 0.12 0.06 94 1010.4
20260507104551 63 0 0.0 3.0 0.00 0.11 0.05 94 1010.7
20260507103117 63 0 0.0 1.0 0.00 0.11 0.05 94 1010.6
20260507101547 63 146 0.0 2.0 0.00 0.11 0.05 94 1010.5
20260507100058 63 0 0.0 1.0 0.01 0.11 0.05 94 1010.7
20260507094550 63 0 0.0 1.0 0.01 0.11 0.05 94 1010.7
20260507093055 63 0 0.0 0.0 0.01 0.11 0.05 94 1010.8
20260507091546 63 0 0.0 2.0 0.01 0.11 0.05 94 1010.6
20260507090056 63 0 0.0 2.0 0.00 0.10 0.04 94 1010.7
20260507084553 63 0 0.0 5.0 0.00 0.10 0.04 94 1010.0
20260507083054 63 0 0.0 2.0 0.00 0.10 0.04 94 1010.4
20260507081549 63 0 0.0 1.0 0.01 0.10 0.04 93 1010.6
20260507080053 63 203 0.0 4.0 0.01 0.10 0.04 93 1010.8
20260507074557 63 169 1.0 5.0 0.01 0.10 0.04 93 1010.9
20260507073050 63 213 0.0 4.0 0.01 0.10 0.04 93 1011.5
20260507071550 63 0 0.0 2.0 0.00 0.09 0.03 93 1011.5
20260507064553 63 0 0.0 2.0 0.00 0.09 0.03 93 1011.4
20260507063048 63 0 0.0 2.0 0.01 0.09 0.03 93 1011.5
20260507061552 63 0 0.0 2.0 0.02 0.09 0.03 93 1011.8
20260507060049 63 0 1.0 5.0 0.03 0.09 0.03 92 1012.8
20260507054607 63 232 0.0 2.0 0.03 0.09 0.03 92 1012.9
20260507053059 63 232 1.0 5.0 0.02 0.08 0.02 92 1012.7
20260507051555 63 230 0.0 3.0 0.01 0.07 0.01 92 1013.4